Weather Roundup
Issued by NWS Chicago, IL

Home | Current Version | Previous Version | Text Only | Print | Product List | Glossary On
Versions: 1 2 3 4 5 6 7 8 9 10 11 12 13 14 15 16 17 18 19 20 21 22 23 24 25 26 27 28 29 30 31 32 33 34 35 36 37 38 39 40 41 42 43 44 45 46 47 48 49 50
000
NZUS59 KLOT 281021
HRRLOT

CHICAGO AREA WEATHER ROUNDUP
NATIONAL WEATHER SERVICE CHICAGO/ROMEOVILLE IL
500 AM CDT TUE APR 28 2015

NOTE: "FAIR" INDICATES FEW OR NO CLOUDS BELOW 12,000 FEET WITH NO
SIGNIFICANT WEATHER AND/OR OBSTRUCTIONS TO VISIBILITY.

* THESE STATIONS ARE NOT UNDER NWS QUALITY CONTROL. THEY ALSO MAY NOT
  REPORT WEATHER SUCH AS PRECIPITATION OR FOG.

ILZ005-006-012>014-019>023-281100-
NORTHEAST ILLINOIS

CITY           SKY/WX    TMP DP  RH WIND       PRES   REMARKS
OHARE          CLEAR     37  32  82 W3        30.14R
MIDWAY         PTCLDY    41  34  76 CALM      30.14S
AURORA         CLEAR     30  26  85 W5        30.16R WCI  25
LANSING*       CLEAR     35  32  90 CALM      30.15S
JOLIET*        CLEAR     36  34  94 CALM      30.16R
WAUKEGAN       CLEAR     32  30  92 CALM      30.14S
DUPAGE AIRPORT CLEAR     34  31  88 CALM      30.14S
WHEELING       CLEAR     36  32  85 CALM      30.16R
KANKAKEE*      CLEAR     34  32  93 CALM      30.16R
MORRIS*        CLEAR     35  32  89 CALM      30.12S
LEWIS AIRPORT* CLEAR     38  33  81 CALM      30.15R
NORTHERLY IS     N/A     43  34  70 W3          N/A
$$

WIZ051-052-058>065-066-070>072-281100-
SOUTHEAST WISCONSIN

CITY           SKY/WX    TMP DP  RH WIND       PRES   REMARKS
MILWAUKEE      CLEAR     40  31  70 NW3       30.15S
KENOSHA*       CLEAR     39  32  76 N8        30.14S
RACINE*        CLEAR     39  32  76 N7        30.16R
BURLINGTON     CLEAR     32  32  97 N3        30.14S
WAUKESHA       CLEAR     36  30  80 NW3       30.16S
WEST BEND      CLEAR     32  30  93 CALM      30.16R
$$

INZ001>003-010>013-019-020-281100-
NORTHWEST INDIANA

CITY           SKY/WX    TMP DP  RH WIND       PRES   REMARKS
GARY*          CLEAR     36  34  93 CALM      30.15R
MICHIGAN CITY* NOT AVBL
RENSSELAER*    NOT AVBL
VALPARAISO     CLEAR     34  34 100 W3        30.15R FOG
$$

LMZ740>746-281100-
SOUTHERN LAKE MICHIGAN

STATION/POSITION TIME  SKY/WX   TEMP WIND        PRES    VSBY
                                AIR  DIR/SP/G
                 (UTC)          (F)  (DEG/KT/KT) (MB)    (MI)
HARRISON CRIB    1000            42  330/  7/  8   N/A
BURNHAM HARBOR   1000            43  280/  2/  4   N/A
CALUMET HARBOR   0900            41  260/  2/  2   N/A
BURNS HARBOR     0900            42  340/  4/  5 1021.0R
MICHIGAN CITY    1000            38  160/  2/  3   N/A
$$

ABBREVIATIONS USED IN REMARKS
   TC - TEMPERATURE IN CELSIUS
  WCI - WIND CHILL INDEX
   HX - HEAT INDEX
  VSB - VISIBILITY
$$


USA.gov is the U.S. government's official web portal to all federal, state and local government web resources and services.